MLA2291 EPWR-LKMT

Flight info

Callsign MLA2291
Flight time 1h 0m
Altitude 7500
Route DCT
Aircraft C208/L-V/N

Departure

Time 2026-04-21 19:53
Airport Copernicus Wrocław Airport (EPWR)

Arrival

Time 2026-04-21 20:54
Airport Leoš Janáček Airport Ostrava (LKMT)
Time Latitude Longitude Altitude Speed Heading
2026-04-21 19:34 51.10905 16.87843 420 ft 0 kts 29°
2026-04-21 19:46 51.10883 16.87811 420 ft 13 kts 55°
2026-04-21 19:46 51.10874 16.87778 420 ft 0 kts 99°
2026-04-21 19:47 51.10855 16.87814 420 ft 9 kts 136°
2026-04-21 19:47 51.10817 16.87901 417 ft 11 kts 119°
2026-04-21 19:47 51.10794 16.87974 420 ft 12 kts 115°
2026-04-21 19:47 51.10743 16.88141 420 ft 13 kts 115°
2026-04-21 19:48 51.10715 16.88232 418 ft 14 kts 115°
2026-04-21 19:48 51.10670 16.88379 420 ft 15 kts 115°
2026-04-21 19:48 51.10622 16.88535 415 ft 16 kts 116°
2026-04-21 19:48 51.10574 16.88699 416 ft 17 kts 116°
2026-04-21 19:49 51.10522 16.88869 416 ft 17 kts 115°
2026-04-21 19:49 51.10469 16.89044 420 ft 18 kts 117°
2026-04-21 19:49 51.10413 16.89222 420 ft 18 kts 116°
2026-04-21 19:49 51.10358 16.89405 420 ft 18 kts 116°
2026-04-21 19:50 51.10300 16.89589 420 ft 19 kts 116°
2026-04-21 19:50 51.10246 16.89772 416 ft 18 kts 116°
2026-04-21 19:50 51.10192 16.89944 420 ft 16 kts 124°
2026-04-21 19:50 51.10126 16.89957 415 ft 8 kts 208°
2026-04-21 19:51 51.10123 16.89955 420 ft 0 kts 208°
2026-04-21 19:51 51.10099 16.89935 414 ft 10 kts 207°
2026-04-21 19:51 51.10027 16.89879 420 ft 12 kts 205°
2026-04-21 19:52 51.09940 16.89814 411 ft 16 kts 210°
2026-04-21 19:52 51.09942 16.89642 412 ft 37 kts 295°
2026-04-21 19:52 51.10174 16.88910 414 ft 104 kts 296°
2026-04-21 19:52 51.10517 16.87799 626 ft 116 kts 296°
2026-04-21 19:53 51.10913 16.86585 815 ft 129 kts 296°
2026-04-21 19:53 51.11337 16.85280 1045 ft 136 kts 296°
2026-04-21 19:53 51.11792 16.83937 1276 ft 139 kts 296°
2026-04-21 19:53 51.12276 16.82583 1504 ft 142 kts 296°
2026-04-21 19:54 51.12784 16.81203 1728 ft 147 kts 297°
2026-04-21 19:54 51.13314 16.79776 1960 ft 151 kts 297°
2026-04-21 19:54 51.13843 16.78276 2190 ft 158 kts 297°
2026-04-21 19:54 51.14351 16.76709 2412 ft 161 kts 298°
2026-04-21 19:55 51.14830 16.75119 2637 ft 161 kts 297°
2026-04-21 19:55 51.15265 16.73468 2868 ft 160 kts 297°
2026-04-21 19:55 51.15654 16.71814 3101 ft 158 kts 297°
2026-04-21 19:55 51.16033 16.70189 3323 ft 154 kts 297°
2026-04-21 19:56 51.16401 16.68565 3553 ft 157 kts 297°
2026-04-21 19:56 51.16773 16.66925 3780 ft 157 kts 297°
2026-04-21 19:56 51.16825 16.66697 3800 ft 156 kts 297°
2026-04-21 19:56 51.17155 16.65241 4000 ft 154 kts 297°
2026-04-21 19:57 51.17516 16.63667 4221 ft 151 kts 296°
2026-04-21 19:57 51.17874 16.62103 4438 ft 149 kts 297°
2026-04-21 19:57 51.18233 16.60552 4663 ft 149 kts 296°
2026-04-21 19:57 51.18592 16.59001 4889 ft 149 kts 297°
2026-04-21 19:58 51.18955 16.57457 5112 ft 148 kts 300°
2026-04-21 19:58 51.19655 16.56444 5327 ft 135 kts 351°
2026-04-21 19:58 51.20578 16.56483 5566 ft 133 kts
2026-04-21 19:58 51.21490 16.56692 5797 ft 132 kts 15°
2026-04-21 19:59 51.22344 16.57218 6025 ft 133 kts 28°
2026-04-21 19:59 51.23115 16.58009 6248 ft 134 kts 33°
2026-04-21 19:59 51.23892 16.58830 6470 ft 133 kts 31°
2026-04-21 19:59 51.24682 16.59596 6697 ft 133 kts 29°
2026-04-21 20:00 51.25487 16.60325 6918 ft 132 kts 28°
2026-04-21 20:00 51.26312 16.61057 6997 ft 141 kts 28°
2026-04-21 20:00 51.27197 16.61838 7008 ft 149 kts 28°
2026-04-21 20:00 51.28122 16.62654 7014 ft 154 kts 28°
2026-04-21 20:01 51.29075 16.63492 7011 ft 158 kts 28°
2026-04-21 20:01 51.30044 16.64341 7002 ft 159 kts 28°
2026-04-21 20:01 51.31015 16.65194 7003 ft 159 kts 28°
2026-04-21 20:01 51.31983 16.66040 7003 ft 159 kts 28°
2026-04-21 20:02 51.32941 16.66888 7004 ft 160 kts 28°
2026-04-21 20:02 51.33915 16.67745 7003 ft 159 kts 28°
2026-04-21 20:02 51.34874 16.68623 6999 ft 159 kts 34°
2026-04-21 20:02 51.35631 16.69917 6998 ft 161 kts 53°
2026-04-21 20:03 51.36074 16.71562 7006 ft 164 kts 72°
2026-04-21 20:03 51.36134 16.73400 7015 ft 170 kts 93°
2026-04-21 20:03 51.35764 16.75232 7004 ft 176 kts 112°
2026-04-21 20:03 51.35217 16.76986 7008 ft 175 kts 111°
2026-04-21 20:04 51.34692 16.78744 7002 ft 175 kts 111°
2026-04-21 20:04 51.34161 16.80496 7001 ft 176 kts 111°
2026-04-21 20:04 51.33627 16.82261 7005 ft 176 kts 111°
2026-04-21 20:04 51.33093 16.83999 7001 ft 176 kts 111°
2026-04-21 20:05 51.32560 16.85750 7002 ft 176 kts 111°
2026-04-21 20:05 51.32026 16.87516 6997 ft 177 kts 112°
2026-04-21 20:05 51.31486 16.89270 6997 ft 175 kts 111°
2026-04-21 20:05 51.30955 16.91016 6998 ft 174 kts 111°
2026-04-21 20:06 51.30423 16.92765 6996 ft 175 kts 112°
2026-04-21 20:06 51.29890 16.94506 6997 ft 174 kts 112°
2026-04-21 20:06 51.29355 16.96248 7000 ft 175 kts 112°
2026-04-21 20:06 51.28821 16.98000 6998 ft 175 kts 112°
2026-04-21 20:07 51.28286 16.99748 6992 ft 175 kts 112°
2026-04-21 20:07 51.27753 17.01492 6994 ft 174 kts 111°
2026-04-21 20:07 51.27220 17.03235 7000 ft 175 kts 112°
2026-04-21 20:07 51.26680 17.04981 6998 ft 175 kts 112°
2026-04-21 20:08 51.26093 17.06684 6991 ft 177 kts 124°
2026-04-21 20:08 51.25140 17.07955 6998 ft 182 kts 148°
2026-04-21 20:08 51.23938 17.08620 6998 ft 185 kts 164°
2026-04-21 20:08 51.22699 17.09141 7010 ft 184 kts 162°
2026-04-21 20:09 51.21456 17.09687 6998 ft 186 kts 162°
2026-04-21 20:09 51.20206 17.10216 7001 ft 185 kts 163°
2026-04-21 20:09 51.18961 17.10744 7004 ft 185 kts 163°
2026-04-21 20:09 51.17733 17.11268 6999 ft 185 kts 162°
2026-04-21 20:10 51.16490 17.11800 7003 ft 184 kts 162°
2026-04-21 20:10 51.15251 17.12332 7001 ft 184 kts 163°
2026-04-21 20:10 51.14010 17.12854 6998 ft 185 kts 163°
2026-04-21 20:10 51.12770 17.13381 6999 ft 184 kts 163°
2026-04-21 20:11 51.11531 17.13910 7001 ft 184 kts 162°
2026-04-21 20:11 51.10291 17.14440 6996 ft 184 kts 163°
2026-04-21 20:11 51.09055 17.14964 6999 ft 183 kts 163°
2026-04-21 20:11 51.07826 17.15483 6999 ft 183 kts 163°
2026-04-21 20:12 51.06589 17.16008 7003 ft 185 kts 163°
2026-04-21 20:12 51.05344 17.16538 7000 ft 184 kts 163°
2026-04-21 20:12 51.04109 17.17056 6997 ft 183 kts 162°
2026-04-21 20:12 51.02877 17.17581 6998 ft 183 kts 162°
2026-04-21 20:13 51.01640 17.18104 7002 ft 185 kts 163°
2026-04-21 20:13 51.00413 17.18627 6995 ft 185 kts 162°
2026-04-21 20:13 50.99170 17.19158 7003 ft 185 kts 162°
2026-04-21 20:13 50.97924 17.19680 7000 ft 185 kts 162°
2026-04-21 20:14 50.96678 17.20203 7001 ft 185 kts 163°
2026-04-21 20:14 50.95431 17.20726 6994 ft 185 kts 163°
2026-04-21 20:14 50.94188 17.21255 6993 ft 184 kts 163°
2026-04-21 20:14 50.92945 17.21772 6997 ft 186 kts 163°
2026-04-21 20:15 50.91695 17.22302 6995 ft 186 kts 162°
2026-04-21 20:15 50.90438 17.22835 6998 ft 186 kts 163°
2026-04-21 20:15 50.89192 17.23357 6993 ft 185 kts 163°
2026-04-21 20:15 50.87965 17.23870 6996 ft 185 kts 163°
2026-04-21 20:16 50.86724 17.24395 6992 ft 184 kts 163°
2026-04-21 20:16 50.85486 17.24920 6991 ft 184 kts 163°
2026-04-21 20:16 50.84248 17.25437 6995 ft 185 kts 163°
2026-04-21 20:16 50.82996 17.25962 6995 ft 186 kts 162°
2026-04-21 20:17 50.81749 17.26475 6996 ft 186 kts 162°
2026-04-21 20:17 50.80497 17.27015 6999 ft 186 kts 162°
2026-04-21 20:17 50.79246 17.27534 6988 ft 185 kts 163°
2026-04-21 20:17 50.78002 17.28059 6997 ft 185 kts 163°
2026-04-21 20:18 50.77176 17.28404 6995 ft 185 kts 162°
2026-04-21 20:18 50.75527 17.29091 6993 ft 185 kts 162°
2026-04-21 20:18 50.74282 17.29615 6994 ft 185 kts 163°
2026-04-21 20:18 50.73030 17.30131 6990 ft 186 kts 163°
2026-04-21 20:19 50.71774 17.30653 6994 ft 187 kts 163°
2026-04-21 20:19 50.70517 17.31175 6994 ft 186 kts 162°
2026-04-21 20:19 50.69273 17.31706 6992 ft 185 kts 162°
2026-04-21 20:19 50.68028 17.32228 6997 ft 186 kts 163°
2026-04-21 20:20 50.66773 17.32742 6992 ft 186 kts 163°
2026-04-21 20:20 50.65523 17.33266 6994 ft 186 kts 162°
2026-04-21 20:20 50.64265 17.33790 6992 ft 186 kts 162°
2026-04-21 20:20 50.63018 17.34310 6991 ft 184 kts 163°
2026-04-21 20:21 50.61782 17.34820 6987 ft 185 kts 162°
2026-04-21 20:21 50.60540 17.35339 6990 ft 185 kts 163°
2026-04-21 20:21 50.59289 17.35858 6992 ft 186 kts 162°
2026-04-21 20:21 50.58039 17.36380 6990 ft 186 kts 163°
2026-04-21 20:22 50.56791 17.36892 6990 ft 185 kts 163°
2026-04-21 20:22 50.54295 17.37933 6990 ft 186 kts 163°
2026-04-21 20:22 50.53041 17.38437 6985 ft 187 kts 163°
2026-04-21 20:23 50.51784 17.38968 6984 ft 187 kts 162°
2026-04-21 20:23 50.50548 17.39489 6988 ft 187 kts 162°
2026-04-21 20:23 50.49280 17.40007 6983 ft 185 kts 163°
2026-04-21 20:23 50.48043 17.40515 6980 ft 185 kts 162°
2026-04-21 20:24 50.46794 17.41037 6979 ft 186 kts 162°
2026-04-21 20:24 50.45543 17.41554 6986 ft 185 kts 162°
2026-04-21 20:24 50.44293 17.42066 6983 ft 186 kts 163°
2026-04-21 20:24 50.43043 17.42578 6983 ft 185 kts 162°
2026-04-21 20:25 50.41795 17.43099 6981 ft 185 kts 162°
2026-04-21 20:25 50.40547 17.43613 6980 ft 185 kts 162°
2026-04-21 20:25 50.39305 17.44150 6980 ft 184 kts 158°
2026-04-21 20:25 50.38251 17.45209 6969 ft 179 kts 132°
2026-04-21 20:26 50.37378 17.46595 6975 ft 179 kts 131°
2026-04-21 20:26 50.36487 17.47964 6974 ft 179 kts 131°
2026-04-21 20:26 50.35622 17.49313 6974 ft 179 kts 131°
2026-04-21 20:26 50.34721 17.50713 6975 ft 179 kts 131°
2026-04-21 20:27 50.33850 17.52069 6973 ft 179 kts 131°
2026-04-21 20:27 50.32965 17.53442 6972 ft 179 kts 131°
2026-04-21 20:27 50.32082 17.54811 6978 ft 179 kts 131°
2026-04-21 20:27 50.31201 17.56186 6976 ft 179 kts 130°
2026-04-21 20:28 50.30313 17.57565 6978 ft 181 kts 131°
2026-04-21 20:28 50.29426 17.58944 6975 ft 180 kts 131°
2026-04-21 20:28 50.28538 17.60315 6975 ft 179 kts 131°
2026-04-21 20:28 50.27650 17.61692 6975 ft 181 kts 131°
2026-04-21 20:29 50.26758 17.63069 6973 ft 179 kts 131°
2026-04-21 20:29 50.25874 17.64441 6978 ft 180 kts 131°
2026-04-21 20:29 50.24982 17.65819 6975 ft 180 kts 131°
2026-04-21 20:29 50.24095 17.67189 6975 ft 179 kts 131°
2026-04-21 20:30 50.23207 17.68565 6975 ft 180 kts 131°
2026-04-21 20:30 50.22314 17.69941 6972 ft 180 kts 131°
2026-04-21 20:30 50.21421 17.71314 6974 ft 180 kts 131°
2026-04-21 20:30 50.20541 17.72671 6973 ft 180 kts 131°
2026-04-21 20:31 50.19649 17.74045 6971 ft 179 kts 131°
2026-04-21 20:31 50.18767 17.75414 6969 ft 179 kts 130°
2026-04-21 20:31 50.17879 17.76779 6967 ft 178 kts 131°
2026-04-21 20:31 50.16992 17.78138 6970 ft 179 kts 130°
2026-04-21 20:32 50.16109 17.79501 6970 ft 179 kts 131°
2026-04-21 20:32 50.15225 17.80859 6967 ft 178 kts 131°
2026-04-21 20:32 50.14339 17.82220 6971 ft 179 kts 131°
2026-04-21 20:32 50.13453 17.83585 6967 ft 178 kts 131°
2026-04-21 20:33 50.12568 17.84936 6966 ft 178 kts 131°
2026-04-21 20:33 50.11683 17.86297 6970 ft 179 kts 131°
2026-04-21 20:33 50.10803 17.87646 6968 ft 180 kts 131°
2026-04-21 20:33 50.09909 17.89019 6972 ft 181 kts 131°
2026-04-21 20:34 50.09006 17.90394 6971 ft 182 kts 130°
2026-04-21 20:34 50.08109 17.91771 6972 ft 180 kts 131°
2026-04-21 20:34 50.07215 17.93137 6968 ft 180 kts 131°
2026-04-21 20:34 50.06321 17.94496 6968 ft 180 kts 131°
2026-04-21 20:35 50.05433 17.95868 6971 ft 180 kts 131°
2026-04-21 20:35 50.04536 17.97235 6974 ft 181 kts 131°
2026-04-21 20:35 50.03600 17.98546 6970 ft 182 kts 141°
2026-04-21 20:35 50.02413 17.99283 6971 ft 187 kts 166°
2026-04-21 20:36 50.01551 17.99372 6968 ft 188 kts 182°
2026-04-21 20:36 50.00246 17.99193 6974 ft 189 kts 183°
2026-04-21 20:36 49.98939 17.99048 6975 ft 189 kts 183°
2026-04-21 20:36 49.97629 17.98884 6975 ft 189 kts 183°
2026-04-21 20:37 49.96316 17.98725 6975 ft 189 kts 183°
2026-04-21 20:37 49.95009 17.98567 6977 ft 189 kts 183°
2026-04-21 20:37 49.93699 17.98410 6994 ft 188 kts 183°
2026-04-21 20:37 49.92395 17.98251 6995 ft 189 kts 183°
2026-04-21 20:38 49.91085 17.98093 6997 ft 189 kts 183°
2026-04-21 20:38 49.89771 17.97935 6997 ft 190 kts 183°
2026-04-21 20:38 49.88454 17.97769 7000 ft 190 kts 182°
2026-04-21 20:38 49.87131 17.97611 7005 ft 191 kts 182°
2026-04-21 20:39 49.85801 17.97448 6997 ft 191 kts 183°
2026-04-21 20:39 49.84484 17.97295 7002 ft 190 kts 183°
2026-04-21 20:39 49.83165 17.97144 6999 ft 190 kts 182°
2026-04-21 20:39 49.81852 17.96979 6995 ft 187 kts 184°
2026-04-21 20:40 49.80573 17.96816 6993 ft 182 kts 183°
2026-04-21 20:40 49.79313 17.96671 6997 ft 181 kts 183°
2026-04-21 20:40 49.78075 17.96526 6987 ft 179 kts 183°
2026-04-21 20:40 49.76835 17.96376 6998 ft 179 kts 182°
2026-04-21 20:41 49.75585 17.96221 7000 ft 182 kts 183°
2026-04-21 20:41 49.74329 17.95958 6992 ft 183 kts 198°
2026-04-21 20:41 49.73229 17.94976 7001 ft 182 kts 219°
2026-04-21 20:41 49.72236 17.93829 6988 ft 173 kts 218°
2026-04-21 20:42 49.71284 17.92763 6840 ft 171 kts 218°
2026-04-21 20:42 49.70294 17.91634 6464 ft 181 kts 218°
2026-04-21 20:42 49.69294 17.90494 6087 ft 176 kts 218°
2026-04-21 20:42 49.68323 17.89401 5706 ft 169 kts 218°
2026-04-21 20:43 49.67405 17.88366 5325 ft 162 kts 219°
2026-04-21 20:43 49.66488 17.87345 4940 ft 161 kts 218°
2026-04-21 20:43 49.65673 17.86206 4573 ft 158 kts 231°
2026-04-21 20:43 49.64916 17.84966 4326 ft 155 kts 229°
2026-04-21 20:44 49.64193 17.83824 4228 ft 151 kts 229°
2026-04-21 20:44 49.63430 17.82588 4107 ft 165 kts 230°
2026-04-21 20:44 49.62614 17.81287 3970 ft 170 kts 231°
2026-04-21 20:44 49.61743 17.80040 3811 ft 176 kts 214°
2026-04-21 20:45 49.60579 17.79452 3614 ft 177 kts 184°
2026-04-21 20:45 49.59379 17.79734 3495 ft 171 kts 154°
2026-04-21 20:45 49.58537 17.80543 3479 ft 157 kts 131°
2026-04-21 20:45 49.57791 17.81682 3480 ft 149 kts 130°
2026-04-21 20:46 49.57062 17.82736 3499 ft 142 kts 130°
2026-04-21 20:46 49.56388 17.83733 3523 ft 130 kts 129°
2026-04-21 20:46 49.55740 17.84705 3502 ft 127 kts 129°
2026-04-21 20:46 49.55245 17.85759 3511 ft 119 kts 104°
2026-04-21 20:47 49.55137 17.86993 3498 ft 114 kts 78°
2026-04-21 20:47 49.55378 17.88117 3487 ft 108 kts 54°
2026-04-21 20:47 49.55873 17.88980 3385 ft 112 kts 42°
2026-04-21 20:47 49.56419 17.89867 3299 ft 114 kts 43°
2026-04-21 20:48 49.56950 17.90710 3311 ft 108 kts 43°
2026-04-21 20:48 49.57478 17.91563 3302 ft 111 kts 43°
2026-04-21 20:48 49.57994 17.92390 3291 ft 104 kts 43°
2026-04-21 20:48 49.58486 17.93169 3289 ft 100 kts 42°
2026-04-21 20:49 49.58965 17.93936 3303 ft 100 kts 43°
2026-04-21 20:49 49.59445 17.94717 3302 ft 101 kts 42°
2026-04-21 20:49 49.59950 17.95516 3246 ft 106 kts 42°
2026-04-21 20:49 49.60475 17.96363 3113 ft 112 kts 43°
2026-04-21 20:50 49.61015 17.97235 2955 ft 114 kts 45°
2026-04-21 20:50 49.61554 17.98108 2798 ft 108 kts 48°
2026-04-21 20:50 49.62074 17.98928 2659 ft 109 kts 51°
2026-04-21 20:50 49.62600 17.99778 2512 ft 111 kts 53°
2026-04-21 20:51 49.63143 18.00649 2366 ft 115 kts 52°
2026-04-21 20:51 49.63698 18.01544 2218 ft 116 kts 50°
2026-04-21 20:51 49.64255 18.02446 2066 ft 117 kts 47°
2026-04-21 20:51 49.64823 18.03356 1908 ft 117 kts 44°
2026-04-21 20:52 49.65375 18.04252 1762 ft 114 kts 44°
2026-04-21 20:52 49.65910 18.05109 1605 ft 108 kts 43°
2026-04-21 20:52 49.66429 18.05939 1460 ft 107 kts 44°
2026-04-21 20:52 49.66928 18.06747 1315 ft 101 kts 45°
2026-04-21 20:53 49.67410 18.07519 1178 ft 99 kts 45°
2026-04-21 20:53 49.67880 18.08283 1047 ft 97 kts 45°
2026-04-21 20:53 49.68342 18.09024 921 ft 96 kts 46°
2026-04-21 20:53 49.68777 18.09731 834 ft 83 kts 44°
2026-04-21 20:54 49.69066 18.10171 828 ft 6 kts 33°
2026-04-21 20:54 49.69054 18.10216 828 ft 9 kts 179°
2026-04-21 20:54 49.69009 18.10146 827 ft 11 kts 226°
2026-04-21 20:54 49.68946 18.10069 827 ft 10 kts 181°
2026-04-21 20:55 49.68886 18.10132 823 ft 0 kts 131°
2026-04-21 20:56 49.68885 18.10134 822 ft 2 kts 133°
2026-04-21 20:56 49.68874 18.10151 822 ft 0 kts 137°
2026-04-21 20:57 49.68855 18.10177 821 ft 10 kts 137°
2026-04-21 20:58 49.68792 18.10269 820 ft 14 kts 137°
2026-04-21 20:58 49.68759 18.10394 820 ft 13 kts 52°
2026-04-21 20:58 49.68823 18.10496 820 ft 14 kts 46°
2026-04-21 20:58 49.68891 18.10606 820 ft 15 kts 45°
2026-04-21 20:59 49.68963 18.10722 820 ft 15 kts 46°
2026-04-21 20:59 49.69037 18.10842 820 ft 16 kts 47°
2026-04-21 20:59 49.69114 18.10966 820 ft 16 kts 45°
2026-04-21 20:59 49.69192 18.11093 820 ft 16 kts 46°
2026-04-21 21:00 49.69272 18.11221 820 ft 17 kts 45°
2026-04-21 21:00 49.69354 18.11351 820 ft 17 kts 46°
2026-04-21 21:00 49.69435 18.11484 820 ft 17 kts 46°
2026-04-21 21:00 49.69517 18.11618 820 ft 17 kts 47°
2026-04-21 21:01 49.69595 18.11749 820 ft 15 kts 52°
2026-04-21 21:01 49.69578 18.11831 820 ft 8 kts 174°
2026-04-21 21:01 49.69528 18.11829 820 ft 8 kts 141°
2026-04-21 21:01 49.69501 18.11870 820 ft 0 kts 138°
2026-04-21 21:02 49.69496 18.11878 820 ft 3 kts 136°
2026-04-21 21:02 49.69490 18.11886 820 ft 0 kts 136°
2026-04-21 21:02 49.69489 18.11887 820 ft 0 kts 136°